Regional Weather Roundup
Issued by NWS

Home | Current Version | Previous Version | Graphics & Text | Print | Product List | Glossary On
Versions: 1 2 3 4 5 6 7 8 9 10 11 12 13 14 15 16 17 18 19 20 21 22 23 24 25 26 27 28 29 30 31 32 33 34 35 36 37 38 39 40 41 42 43 44 45 46 47 48 49 50
000
ASUS43 KLMK 291802
RWRKY
KENTUCKY REGIONAL WEATHER ROUNDUP
NATIONAL WEATHER SERVICE LOUISVILLE KY
100 PM EST THU JAN 29 2015

NOTE "FAIR" INDICATES FEW OR NO CLOUDS BELOW 12,000 FEET
WITH NO SIGNIFICANT WEATHER AND/OR OBSTRUCTIONS TO VISIBILITY.

KYZ001>023-026-027-061>063-070>075-291900-
WESTERN AND SOUTH CENTRAL KENTUCKY

CITY           SKY/WX    TMP DP  RH WIND       PRES   REMARKS
PADUCAH        CLOUDY    47  34  60 NW18G29   30.12R
HENDERSON      CLOUDY    45  34  65 NW16G23   30.07R
OWENSBORO      CLOUDY    46  38  74 NW16G25   30.05S
HOPKINSVILLE   PTSUNNY   60  43  55 W20       30.02S
BOWLING GREEN  CLOUDY    59  41  51 W22G28    30.00S
GLASGOW        NOT AVBL
$$

KYZ024-025-028>034-038-045-046-053-291900-
NORTH CENTRAL KENTUCKY

CITY           SKY/WX    TMP DP  RH WIND       PRES   REMARKS
LOUISVILLE/SDF CLOUDY    52  39  61 W24G32    29.93R
LOUISVILLE/LOU CLOUDY    51  38  60 W22G33    29.93R
FORT KNOX      CLOUDY    50  40  67 W23G32    29.95R
$$

KYZ035>037-039>044-047>052-055>060-089>105-291900-
NORTHEAST KENTUCKY

CITY           SKY/WX    TMP DP  RH WIND       PRES   REMARKS
LEXINGTON      CLOUDY    52  38  58 SW20G33   29.89F
COVINGTON      CLOUDY    50  37  61 W18G26    29.83F
FRANKFORT      CLOUDY    53  38  56 SW22G32   29.88F
$$

KYZ054-064>069-076>088-106>120-291900-
SOUTHEAST KENTUCKY

CITY           SKY/WX    TMP DP  RH WIND       PRES   REMARKS
JACKSON        CLOUDY    51  37  58 VRB6G17   29.93F
LONDON         SUNNY     54  32  43 SW17G32   29.97F
SOMERSET       NOT AVBL
MIDDLESBORO    NOT AVBL
MONTICELLO     MOCLDY    58  38  47 SW16G28   30.01F
$$



USA.gov is the U.S. government's official web portal to all federal, state and local government web resources and services.